Weather in Khabarovsk

Russia / Khabarovsk Krai     48°28′48″N   135°04′18″E
В апреле 2022 года жителям России запретили посещать сайт meteo.paraplan.net по решению Генеральной прокуратуры. Аудитория сайта уменьшилась в 10 раз. Владельцы сайта не видят смысла в поддержке погодного сервера в таких условиях. Сайт будет закрыт в октябре.
temp.,
°C
wind,
m/s
gust,
m/s
humid.,
%
clouds,
%
prec.,
mm/h
press.,
hPa
HPBL,
m
29 september, thu
thu2901:00+8w510560 0.0 1010236
04:00+5nw24720 0.0 101258
07:00+5nne238299 0.0 101450
10:00+9ene34665 0.0 1015472
13:00+13nnw11555 0.0 1013802
16:00+14wsw235060 0.0 1011962
19:00+10ssw2267100 0.0 101110
22:00+10se226486 0.0 101023
30 september, fri
fri3001:00+11se3562100 0.1 1007125
04:00+10sse127333 0.2 100617
07:00+9sw3989100 0.0 1006201
10:00+13wsw5774100 0.0 1008432
13:00+17wsw466330 0.0 1008865
16:00+18w456013 0.0 10071180
19:00+14n3474100 0.0 100866
22:00+12n2587100 1.7 1008138
1 october, sat
sat101:00+11e4696100 6.0 1007270
04:00+10nne239698 7.6 1008207
07:00+10nnw3595100 0.2 1011337
10:00+9ne4691100 0.5 1014450
13:00+10ene348190 0.1 1017617
16:00+11ene227498 0.1 1018850
19:00+10se238091 0.0 102086
22:00+8se34885 0.0 102258
2 october, sun
sun201:00+7sse22905 0.0 102227
04:00+6sse1189100 0.0 102310
07:00+7s1188100 0.0 102210
10:00+11se237420 0.0 1022330
13:00+14sw2356100 0.0 1020876
16:00+15sw235991 0.0 10191061
19:00+13sse1175100 0.1 101811
22:00+11se3383100 0.1 101641
3 october, mon
mon301:00+11sse248482 0.0 101374
04:00+11sw2290100 0.0 101218
07:00+12s41094100 0.5 1010278
10:00+16sw7148189 0.6 1009788
13:00+13w61088100 0.2 1008822
16:00+11nw6983100 0.2 1008574
19:00+7wnw61190100 2.7 1010639
22:00+6w61179100 5.2 1011977